#timestamp,LO_Frequency,Hit,StdDev 
1634749215.6,286046998.4,N
1634749235.4,286046998.7,N
1634749255.2,286046999.3,N
1634749275.1,286046998.8,N
1634749276.0,286046998.8,N
1634749295.8,286046999.4,N
1634749315.7,286046999.1,N
1634749335.5,286046998.9,N
1634749355.3,286046999.0,N
1634749375.2,286046999.6,N
1634749395.0,286046998.6,N
1634749395.9,286046998.6,N
1634749415.7,286047000.8,N
1634749435.6,286047000.3,N
1634749455.4,286047000.7,N
1634749475.3,286046998.6,N
1634749495.1,286047000.7,N
1634749515.8,286047001.1,N
1634749535.7,286047000.8,N
1634749555.5,286046998.1,N
1634749575.4,286046998.1,N
1634749595.2,286046998.4,N
1634749615.0,286047001.2,N
1634749615.9,286047001.2,N
1634749635.8,286046998.4,N
1634749655.6,286046998.6,N
1634749675.5,286047000.9,N
1634749695.3,286047000.9,N
1634749715.1,286047000.5,N
1634749735.9,286047002.7,N
1634749755.7,286046999.6,N
1634749775.5,286046999.2,N
1634749795.4,286046999.4,N
1634749815.2,286046997.3,N
1634749835.1,286046996.8,N
1634749836.0,286046996.8,N
1634749855.8,286046996.7,N
1634749875.6,286046998.7,N
1634749895.5,286046999.3,N
1634749915.3,286046999.0,N
1634749935.1,286046999.4,N
1634749955.9,286046998.3,N
1634749975.7,286046999.2,N
1634749995.6,286047000.8,N
1634750015.4,286046998.9,N
1634750035.2,286046998.6,N
1634750055.1,286047001.2,N
1634750056.0,286047001.2,N
1634750075.8,286047000.7,N
1634750095.7,286047000.8,N
1634750115.5,286046998.3,N
1634750135.3,286046998.6,N
1634750155.2,286046998.7,N
1634750175.0,286046998.5,N
1634750175.9,286046998.5,N
1634750195.8,286046998.4,N
1634750215.6,286046999.2,N
1634750235.4,286046998.9,N
1634750255.3,286046998.8,N
1634750275.1,286047001.1,N
1634750295.9,286047000.7,N
1634750315.7,286047001.0,N
1634750335.5,286047000.7,N
1634750355.4,286046999.8,N
1634750375.2,286047001.6,N
1634750395.0,286047000.6,N
1634750396.0,286047000.6,N
1634750415.8,286047000.8,N
1634750435.6,286046998.1,N
1634750455.5,286047000.5,N
1634750475.3,286046999.9,N
1634750495.1,286047000.3,N
1634750515.9,286046999.7,N
1634750535.7,286047000.4,N
1634750555.6,286047001.2,N
1634750575.4,286047001.2,N
1634750595.2,286046998.2,N
1634750615.1,286046999.3,N
1634750616.0,286046999.3,N
1634750635.8,286046998.9,N
1634750655.7,286046998.9,N
1634750675.5,286047000.0,N
1634750695.3,286047001.0,N
1634750715.2,286047000.3,N
1634750735.0,286047000.9,N
1634750735.9,286047000.9,N
1634750755.8,286047000.6,N
1634750775.6,286047000.3,N
1634750795.4,286047001.2,N
1634750815.3,286047000.8,N
1634750835.1,286046998.6,N
1634750855.8,286046998.7,N
1634750875.7,286046998.7,N
1634750895.5,286046999.3,N
1634750915.4,286046997.2,N
1634750935.2,286046996.6,Y
1634750955.0,286046996.5,P
1634750955.9,286046996.5,N
1634750975.8,286046999.2,N
1634750995.6,286046999.4,N
1634751015.5,286046998.8,N
1634751035.3,286046999.4,N
1634751055.1,286046999.6,N
1634751075.9,286046996.8,N
1634751095.7,286046996.9,N
1634751115.5,286046996.8,N
1634751135.4,286046999.1,N
1634751155.2,286046997.3,N
1634751175.0,286046997.9,N
1634751176.0,286046997.9,N
1634751195.8,286046997.1,N
1634751215.6,286046996.7,N
1634751235.5,286046995.0,Y
1634751255.3,286046996.6,P
1634751275.1,286046996.5,P
1634751295.9,286046997.8,P
1634751315.7,286046995.0,Y
1634751335.6,286047001.0,P
1634751355.4,286046999.9,N
1634751375.2,286047001.1,N
1634751395.1,286046998.2,N
1634751396.0,286046998.2,N
1634751415.8,286047000.3,N
1634751435.6,286047000.4,N
1634751455.5,286047001.0,N
1634751475.3,286047000.6,N
1634751495.2,286047001.2,N
1634751515.9,286046998.6,N
1634751535.7,286046998.9,N
1634751555.6,286046999.8,N
1634751575.4,286047000.5,N
1634751595.2,286047000.3,N
1634751615.1,286047002.4,N
1634751616.0,286047002.4,N
1634751635.8,286047002.4,N
1634751655.7,286046999.8,N
1634751675.5,286046999.7,N
1634751695.3,286046998.3,N
1634751715.2,286046998.8,N
1634751735.0,286047001.2,N
1634751735.9,286047001.2,N
1634751755.8,286046998.4,N
1634751775.6,286046998.7,N
1634751795.4,286047001.0,N
1634751815.3,286047001.2,N
1634751835.1,286046999.1,N
1634751855.8,286046999.4,N
1634751875.7,286046998.7,N
1634751895.5,286046996.5,N
1634751915.4,286046998.3,N
1634751935.2,286046998.6,N
1634751955.0,286046998.8,N
1634751955.9,286046998.8,N
1634751975.8,286046998.5,N
1634751995.6,286047000.7,N
1634752015.5,286047000.2,N
1634752035.3,286046998.3,N
1634752055.1,286047000.9,N
1634752075.9,286046998.2,N
1634752095.7,286047001.1,N
1634752115.6,286046998.2,N
1634752135.4,286046998.8,N
1634752155.2,286046999.0,N
1634752175.1,286046999.4,N
1634752176.0,286046999.4,N
1634752195.8,286046999.3,N
1634752215.6,286047000.9,N
1634752235.5,286047000.1,N
1634752255.3,286047000.2,N
1634752275.2,286047000.2,N
1634752295.9,286047002.3,N
1634752315.7,286047002.5,N
1634752335.6,286047002.4,N
1634752355.4,286047002.1,N
1634752375.2,286047002.6,N
1634752395.1,286047002.6,N
1634752396.0,286047002.6,N
1634752415.8,286047002.3,N
1634752435.7,286047002.3,N
1634752455.5,286047002.8,N
1634752475.3,286047000.6,N
1634752495.2,286047000.9,N
1634752515.0,286047000.5,N
1634752515.9,286047000.5,N
1634752535.7,286046998.4,N
1634752555.6,286047000.8,N
1634752575.4,286047001.0,N
1634752595.3,286047000.0,N
1634752615.1,286047000.5,N
1634752616.0,286047000.5,N
1634752635.8,286047000.3,N
1634752655.7,286047000.4,N
1634752675.5,286047000.8,N
1634752695.3,286046998.8,N
1634752715.2,286046996.9,N
1634752735.0,286046996.9,N
1634752735.9,286046996.9,N
1634752755.8,286046996.6,N
1634752775.6,286046999.2,N
1634752795.4,286046999.5,N
